Regional Weather Roundup
Issued by NWS

Home | Current Version | Previous Version | Text Only | Print | Product List | Glossary Off
Versions: 1 2 3 4 5 6 7 8 9 10 11 12 13 14 15 16 17 18 19 20 21 22 23 24 25 26 27 28 29 30 31 32 33 34 35 36 37 38 39 40 41 42 43 44 45 46 47 48 49 50

000
ASUS43 KMKX 122321
RWRWI

WISCONSIN REGIONAL WEATHER ROUNDUP
NATIONAL WEATHER SERVICE MILWAUKEE/SULLIVAN WI
600 PM CDT SAT JUL 12 2014

NOTE: "FAIR" INDICATES FEW OR NO CLOUDS BELOW 12,000 FEET WITH NO
SIGNIFICANT WEATHER AND/OR OBSTRUCTIONS TO VISIBILITY.

WIZ001-002-006>008-014>016-023>028-130000-
NORTHWEST WISCONSIN

CITY           SKY/WX    TMP DP  RH WIND       PRES   REMARKS
SUPERIOR ARPT  CLOUDY    73  63  72 S6        29.88F
ASHLAND        CLOUDY    69  62  78 SW3       29.90F
HAYWARD        CLOUDY    71  65  81 SW7       29.92F
SIREN          CLOUDY    71  63  77 SW6       29.93F
RICE LAKE      LGT RAIN  66  64  94 CALM      29.95F
LADYSMITH      CLOUDY    66  64  93 SW7       29.96F
EAU CLAIRE     CLOUDY    68  65  90 CALM      29.93F
MENOMONIE      LGT RAIN  67  67  99 N6        29.93F
NEW RICHMOND   DRIZZLE   68  67  95 CALM      29.95F
OSCEOLA        CLOUDY    72  65  79 CALM      29.97F
$$

WIZ003>005-009-010-017-018-130000-
NORTH CENTRAL WISCONSIN

CITY           SKY/WX    TMP DP  RH WIND       PRES   REMARKS
WOODRUFF       CLOUDY    66  61  84 S7        29.94F
RHINELANDER    LGT RAIN  63  62  97 S9        29.97F
EAGLE RIVER    CLOUDY    65  61  88 SW6       29.94R
LAND O LAKES   CLOUDY    74  65  75 SW3       29.93S
PHILLIPS       DRIZZLE   67  64  90 SW7       29.93F
TOMAHAWK       RAIN      63  61  94 CALM      29.99R
MEDFORD        HVY RAIN  63  63  98 S5        30.00R
MERRILL        HVY RAIN  64  63  94 NW3       29.99R
$$

WIZ029-030-035-036-043>047-130000-
CENTRAL WISCONSIN

CITY           SKY/WX    TMP DP  RH WIND       PRES   REMARKS
WAUSAU         LGT RAIN  70  65  84 W9        29.95R
MOSINEE        RAIN      70  68  94 W7        29.97S
MARSHFIELD     LGT RAIN  66  63  90 NW5       29.97S FOG
STEVENS POINT  RAIN      64  60  88 W5        29.96S
WAUPACA        CLOUDY    78  71  80 W5        29.92F HX  80
WAUTOMA        CLOUDY    75  72  88 CALM      29.92F
WISC RAPIDS    LGT RAIN  68  67  96 CALM      29.95F
CAMP DOUGLAS   NOT AVBL
$$

WIZ011>013-019>022-031-037>040-048>050-130000-
NORTHEAST WISCONSIN

CITY           SKY/WX    TMP DP  RH WIND       PRES   REMARKS
ANTIGO         RAIN      65  60  85 NW22G29   29.99R
STURGEON BAY   CLOUDY    70  63  78 S6        29.90F
GREEN BAY      CLOUDY    79  70  74 SW6       29.89F HX  82
MANITOWOC      CLOUDY    66  61  84 E5        29.91F
APPLETON       CLOUDY    75  68  78 W7        29.91F
CLINTONVILLE   CLOUDY    77  68  73 W8        29.90F
OSHKOSH        CLOUDY    75  70  84 VRB3      29.90F
$$

WIZ032>034-041-042-053>061-130000-
SOUTHWEST WISCONSIN

CITY           SKY/WX    TMP DP  RH WIND       PRES   REMARKS
LA CROSSE      LGT RAIN  68  65  90 N5        29.96F FOG
SPARTA         RAIN      66  64  94 N3        29.96F
VIROQUA        CLOUDY    67  67 100 N8        29.96F
BOSCOBEL       CLOUDY    78  73  84 CALM      29.91F HX  81
PRAIRIE DU CHI LGT RAIN  75  69  80 NW15      29.92R
PLATTEVILLE    FAIR      76  74  91 CALM      29.92F
$$

WIZ056-057-062-063-064-067-068-130000-
SOUTH CENTRAL WISCONSIN

CITY           SKY/WX    TMP DP  RH WIND       PRES   REMARKS
BARABOO/DELLS  CLOUDY    73  70  90 CALM      29.92F FOG
LONE ROCK      LGT RAIN  79  72  79 CALM      29.90F HX  82
WATERTOWN      DRIZZLE   74  73  98 S5        29.92F
MADISON        LGT RAIN  77  72  84 S6        29.91F
MIDDLETON      MOCLDY    78  75  92 SW7       29.93F
MONROE         CLOUDY    77  72  83 S3        29.93F
JANESVILLE     CLOUDY    79  72  78 CALM      29.94F HX  82
$$

WIZ051-052-058>065-066-070>072-130000-
SOUTHEAST WISCONSIN

CITY           SKY/WX    TMP DP  RH WIND       PRES   REMARKS
MILWAUKEE      CLOUDY    77  70  79 W7        29.94S
WAUKESHA       LGT RAIN  73  70  88 W6        29.96R FOG
MILWAUKEE/TIMM LGT RAIN  75  70  83 W6        29.95S
RACINE         LGT RAIN  76  71  85 CALM      29.95F
BURLINGTON     RAIN      72  71  95 W5        29.95S
KENOSHA        CLOUDY    77  71  82 W7        29.94F
FOND DU LAC    LGT RAIN  74  70  87 SW6       29.91F
SHEBOYGAN      LGT RAIN  75  69  81 W5        29.91F
WEST BEND      LGT RAIN  73  66  78 SW5       29.94F
JUNEAU         LGT RAIN  73  56  55 S3        29.94F
$$

LSZ147-162-130000-
LAKE SUPERIOR

STATION/POSITION TIME  TEMP    WIND        PRES    WAVE
                       AIR SEA DIR/SP/G            HT/PER
                 (UTC) (F)     (DEG/KT/KT) (MB)    (FT/S)
W MID LAKE BUOY  2250   47 39  250/  2/  4 1011.8F   0
PORT WING        2200   69     160/  3/ 21 1012.5
SAXON HARBOR     2200             CALM     1012.9F
$$

LMZ867-665-643>646-130000-
LAKE MICHIGAN

STATION/POSITION TIME  TEMP    WIND        PRES    WAVE
                       AIR SEA DIR/SP/G            HT/PER
                 (UTC) (F)     (DEG/KT/KT) (MB)    (FT/S)
N MID LAKE BUOY  2250   58 56  200/ 10/ 12 1012.1F   2/ 4
NORTHPORT PIER   2200   68     170/  5/  8 1012.2F
KEWAUNEE LAKESHO 2200   55     150/  5/  7 1014.1F
SHEBOYGAN LAKESH 2300   74        CALM     1012.8F
PORT WASHINGTON  2220   66     200/  3/  8 1013.9S
MILWAUKEE LAKESH 2300   76     270/  8/ 11   N/A
S MID LAKE BUOY  2250   63 61  160/ 10/ 10 1014.4F   1/ 4
KENOSHA   LAKESH 2300   79     240/  6/  8   N/A
$$

TC  - TEMPERATURE IN CELSIUS
VSB - VISIBILITY IN STATUTE MILES
WCI - WIND CHILL INDEX
HX  - HEAT INDEX



USA.gov is the U.S. government's official web portal to all federal, state and local government web resources and services.